| time (UTC) | temp F | wind direction | speed knots | gust knots | rain 1hr in | rain 24hr in | rain mn in | humidity % | barometer mb |
| 20260903013102 | 91 | 139 | 0.9 | 2.6 | 0.00 | 0.00 | 0.00 | 45 | 1008.5 |
| 20260903011522 | 93 | 150 | 0.0 | 0.9 | 0.00 | 0.00 | 0.00 | 42 | 1008.4 |
| 20260903010049 | 95 | 171 | 0.0 | 0.9 | 0.00 | 0.00 | 0.00 | 40 | 1008.3 |
| 20260903004503 | 96 | 150 | 0.0 | 0.9 | 0.00 | 0.00 | 0.00 | 37 | 1008.4 |
| 20260903003023 | 98 | 139 | 0.0 | 3.5 | 0.00 | 0.00 | 0.00 | 36 | 1008.4 |
| 20260903001556 | 99 | 154 | 1.7 | 5.2 | 0.00 | 0.00 | 0.00 | 34 | 1008.4 |
| 20260902234515 | 100 | 160 | 3.5 | 7.0 | 0.00 | 0.00 | 0.00 | 34 | 1008.4 |
| 20260902233028 | 101 | 135 | 2.6 | 6.1 | 0.00 | 0.00 | 0.00 | 33 | 1008.5 |
| 20260902231544 | 101 | 148 | 1.7 | 7.8 | 0.00 | 0.00 | 0.00 | 33 | 1008.5 |
| 20260902230121 | 101 | 149 | 1.7 | 5.2 | 0.00 | 0.00 | 0.00 | 32 | 1008.5 |
| 20260902224520 | 101 | 147 | 2.6 | 5.2 | 0.00 | 0.00 | 0.00 | 32 | 1008.5 |
| 20260902223041 | 102 | 148 | 3.5 | 6.1 | 0.00 | 0.00 | 0.00 | 31 | 1008.6 |
| 20260902221601 | 102 | 165 | 1.7 | 7.8 | 0.00 | 0.00 | 0.00 | 33 | 1008.6 |
| 20260902220015 | 102 | 143 | 0.9 | 4.3 | 0.00 | 0.00 | 0.00 | 34 | 1008.7 |
| 20260902214529 | 101 | 151 | 3.5 | 7.0 | 0.00 | 0.00 | 0.00 | 35 | 1008.8 |
| 20260902213049 | 101 | 155 | 1.7 | 6.1 | 0.00 | 0.00 | 0.00 | 35 | 1009.0 |
| 20260902211604 | 100 | 137 | 1.7 | 6.1 | 0.00 | 0.00 | 0.00 | 37 | 1009.2 |
| 20260902210130 | 98 | 152 | 0.9 | 2.6 | 0.00 | 0.00 | 0.00 | 39 | 1009.3 |
| 20260902204515 | 100 | 140 | 3.5 | 7.0 | 0.00 | 0.00 | 0.00 | 37 | 1009.7 |
| 20260902203031 | 100 | 127 | 0.0 | 5.2 | 0.00 | 0.00 | 0.00 | 36 | 1009.7 |
| 20260902201541 | 101 | 139 | 0.0 | 8.7 | 0.00 | 0.00 | 0.00 | 36 | 1010.0 |
| 20260902200106 | 100 | 114 | 2.6 | 7.8 | 0.00 | 0.00 | 0.00 | 37 | 1010.4 |
| 20260902194510 | 96 | 163 | 0.9 | 4.3 | 0.00 | 0.00 | 0.00 | 42 | 1010.7 |
| 20260902193103 | 96 | 165 | 2.6 | 7.0 | 0.00 | 0.00 | 0.00 | 42 | 1010.9 |
| 20260902191519 | 98 | 148 | 0.0 | 3.5 | 0.00 | 0.00 | 0.00 | 40 | 1011.2 |
| 20260902190047 | 99 | 148 | 1.7 | 10.4 | 0.00 | 0.00 | 0.00 | 40 | 1011.4 |
| 20260902184558 | 100 | 149 | 3.5 | 7.0 | 0.00 | 0.00 | 0.00 | 40 | 1011.7 |
| 20260902183022 | 98 | 149 | 0.9 | 5.2 | 0.00 | 0.00 | 0.00 | 43 | 1012.0 |
| 20260902181540 | 97 | 154 | 1.7 | 5.2 | 0.00 | 0.00 | 0.00 | 43 | 1012.2 |
| 20260902180055 | 96 | 133 | 2.6 | 7.0 | 0.00 | 0.00 | 0.00 | 44 | 1012.6 |
| 20260902174519 | 95 | 139 | 3.5 | 7.8 | 0.00 | 0.00 | 0.00 | 47 | 1012.9 |
| 20260902173039 | 95 | 145 | 0.9 | 6.1 | 0.00 | 0.00 | 0.00 | 48 | 1013.1 |
| 20260902171609 | 95 | 150 | 2.6 | 7.0 | 0.00 | 0.00 | 0.00 | 50 | 1013.3 |
| 20260902170003 | 92 | 165 | 1.7 | 7.0 | 0.00 | 0.00 | 0.00 | 55 | 1013.4 |
| 20260902164526 | 92 | 176 | 0.9 | 7.0 | 0.00 | 0.00 | 0.00 | 56 | 1013.7 |
| 20260902163039 | 91 | 136 | 1.7 | 5.2 | 0.00 | 0.00 | 0.00 | 59 | 1013.8 |
| 20260902161557 | 90 | 171 | 3.5 | 7.8 | 0.00 | 0.00 | 0.00 | 62 | 1013.9 |
| 20260902160011 | 88 | 158 | 1.7 | 7.0 | 0.00 | 0.00 | 0.00 | 64 | 1013.9 |
| 20260902154534 | 87 | 130 | 1.7 | 7.8 | 0.00 | 0.00 | 0.00 | 69 | 1013.9 |
| 20260902153051 | 86 | 147 | 2.6 | 7.8 | 0.00 | 0.00 | 0.00 | 71 | 1013.9 |
| 20260902151558 | 85 | 155 | 1.7 | 6.1 | 0.00 | 0.00 | 0.00 | 73 | 1013.9 |
| 20260902150058 | 84 | 158 | 3.5 | 7.8 | 0.00 | 0.00 | 0.00 | 75 | 1014.0 |
| 20260902144511 | 83 | 163 | 3.5 | 7.0 | 0.00 | 0.00 | 0.00 | 78 | 1014.1 |
| 20260902143031 | 83 | 171 | 3.5 | 8.7 | 0.00 | 0.00 | 0.00 | 80 | 1014.1 |
| 20260902141549 | 82 | 147 | 3.5 | 6.1 | 0.00 | 0.00 | 0.00 | 81 | 1014.0 |
| 20260902140104 | 81 | 137 | 1.7 | 5.2 | 0.00 | 0.00 | 0.00 | 84 | 1014.1 |
| 20260902134524 | 79 | 158 | 1.7 | 3.5 | 0.00 | 0.00 | 0.00 | 87 | 1014.2 |
| 20260902133037 | 77 | 172 | 0.0 | 0.9 | 0.00 | 0.00 | 0.00 | 89 | 1014.1 |
| 20260902131551 | 76 | 131 | 0.0 | 0.0 | 0.00 | 0.00 | 0.00 | 89 | 1014.0 |
| 20260902130004 | 74 | 159 | 0.0 | 0.0 | 0.00 | 0.00 | 0.00 | 89 | 1013.8 |
| 20260902124519 | 74 | 142 | 0.0 | 0.0 | 0.00 | 0.00 | 0.00 | 88 | 1013.6 |
| 20260902123043 | 74 | 174 | 0.0 | 0.0 | 0.00 | 0.00 | 0.00 | 88 | 1013.2 |
| 20260902121602 | 74 | 154 | 0.0 | 0.0 | 0.00 | 0.00 | 0.00 | 88 | 1013.2 |
| 20260902120017 | 75 | 180 | 0.0 | 0.0 | 0.00 | 0.00 | 0.00 | 88 | 1013.1 |
| 20260902114538 | 76 | 156 | 0.0 | 0.9 | 0.00 | 0.00 | 0.00 | 88 | 1013.0 |
| 20260902113052 | 76 | 151 | 0.0 | 0.9 | 0.00 | 0.00 | 0.00 | 88 | 1013.0 |
| 20260902111507 | 76 | 165 | 0.0 | 2.6 | 0.00 | 0.00 | 0.00 | 87 | 1012.9 |
| 20260902110025 | 76 | 176 | 0.0 | 2.6 | 0.00 | 0.00 | 0.00 | 87 | 1012.8 |
| 20260902104555 | 76 | 171 | 0.0 | 2.6 | 0.00 | 0.00 | 0.00 | 87 | 1012.9 |
| 20260902103035 | 76 | 167 | 0.0 | 2.6 | 0.00 | 0.00 | 0.00 | 86 | 1012.8 |
| 20260902101602 | 76 | 141 | 0.0 | 1.7 | 0.00 | 0.00 | 0.00 | 86 | 1012.8 |
| 20260902100014 | 77 | 159 | 0.0 | 4.3 | 0.00 | 0.00 | 0.00 | 86 | 1012.9 |
| 20260902094526 | 77 | 144 | 0.9 | 3.5 | 0.00 | 0.00 | 0.00 | 85 | 1012.9 |
| 20260902093043 | 77 | 165 | 0.0 | 2.6 | 0.00 | 0.00 | 0.00 | 85 | 1013.1 |
| 20260902091559 | 76 | 153 | 0.9 | 3.5 | 0.00 | 0.00 | 0.00 | 85 | 1013.1 |
| 20260902090014 | 76 | 148 | 0.0 | 0.9 | 0.00 | 0.00 | 0.00 | 84 | 1013.1 |
| 20260902084530 | 76 | 154 | 0.0 | 0.9 | 0.00 | 0.00 | 0.00 | 83 | 1013.1 |
| 20260902083044 | 76 | 152 | 0.0 | 0.9 | 0.00 | 0.00 | 0.00 | 82 | 1013.2 |
| 20260902081607 | 76 | 139 | 0.0 | 0.9 | 0.00 | 0.00 | 0.00 | 81 | 1013.2 |
| 20260902080014 | 77 | 134 | 0.0 | 0.0 | 0.00 | 0.00 | 0.00 | 79 | 1013.3 |
| 20260902074526 | 78 | 144 | 0.0 | 0.0 | 0.00 | 0.00 | 0.00 | 78 | 1013.3 |
| 20260902073037 | 79 | 153 | 0.0 | 0.9 | 0.00 | 0.00 | 0.00 | 78 | 1013.2 |
| 20260902071556 | 79 | 156 | 0.0 | 0.9 | 0.00 | 0.00 | 0.00 | 77 | 1013.2 |
| 20260902070010 | 80 | 166 | 0.9 | 3.5 | 0.00 | 0.00 | 0.00 | 76 | 1013.2 |
| 20260902064530 | 80 | 150 | 0.0 | 3.5 | 0.00 | 0.00 | 0.00 | 75 | 1013.1 |
| 20260902063103 | 80 | 153 | 0.0 | 1.7 | 0.00 | 0.00 | 0.00 | 74 | 1013.2 |
| 20260902061608 | 81 | 115 | 0.0 | 0.9 | 0.00 | 0.00 | 0.00 | 73 | 1013.1 |
| 20260902060013 | 81 | 137 | 0.0 | 5.2 | 0.00 | 0.00 | 0.00 | 71 | 1012.9 |
| 20260902054538 | 82 | 165 | 2.6 | 7.0 | 0.00 | 0.00 | 0.00 | 70 | 1012.9 |
| 20260902053020 | 82 | 144 | 2.6 | 6.1 | 0.00 | 0.00 | 0.00 | 69 | 1012.8 |
| 20260902051556 | 82 | 174 | 1.7 | 5.2 | 0.00 | 0.00 | 0.00 | 69 | 1012.7 |
| 20260902050100 | 83 | 160 | 2.6 | 6.1 | 0.00 | 0.00 | 0.00 | 67 | 1012.7 |
| 20260902044514 | 83 | 144 | 2.6 | 7.0 | 0.00 | 0.00 | 0.00 | 66 | 1012.6 |
| 20260902043031 | 84 | 152 | 2.6 | 7.0 | 0.00 | 0.00 | 0.00 | 64 | 1012.6 |
| 20260902041602 | 84 | 157 | 4.3 | 8.7 | 0.00 | 0.00 | 0.00 | 63 | 1012.5 |
| 20260902040002 | 84 | 132 | 4.3 | 7.8 | 0.00 | 0.00 | 0.00 | 62 | 1012.3 |
| 20260902034520 | 85 | 161 | 4.3 | 11.3 | 0.00 | 0.00 | 0.00 | 62 | 1012.3 |
| 20260902033143 | 85 | 150 | 3.5 | 9.6 | 0.00 | 0.00 | 0.00 | 63 | 1012.3 |
| 20260902031514 | 85 | 131 | 4.3 | 10.4 | 0.00 | 0.00 | 0.00 | 62 | 1012.1 |
| 20260902030028 | 86 | 200 | 5.2 | 10.4 | 0.00 | 0.00 | 0.00 | 62 | 1011.8 |
| 20260902024556 | 87 | 163 | 4.3 | 12.2 | 0.00 | 0.00 | 0.00 | 59 | 1011.5 |
| 20260902023018 | 88 | 154 | 3.5 | 9.6 | 0.00 | 0.00 | 0.00 | 57 | 1011.4 |
| 20260902021539 | 88 | 143 | 0.9 | 6.1 | 0.00 | 0.00 | 0.00 | 54 | 1011.0 |
| 20260902020053 | 89 | 155 | 2.6 | 7.8 | 0.00 | 0.00 | 0.00 | 52 | 1010.7 |
| 20260902014513 | 90 | 153 | 2.6 | 7.0 | 0.00 | 0.00 | 0.00 | 51 | 1010.5 |